﻿測定場所 (Monitoring sites),日付 (Measurement date),時間 (Measurement time),線量率 最大値 (max) μGy/h,線量率 最小値 (min) μGy/h,線量率 平均値 (average) μGy/h,
大田 (Ota),2015-01-04,23:01～24:00,0.0458,0.0388,0.0418,
大田 (Ota),2015-01-04,22:01～23:00,0.0447,0.0382,0.0419,
大田 (Ota),2015-01-04,21:01～22:00,0.0458,0.0393,0.0417,
大田 (Ota),2015-01-04,20:01～21:00,0.0449,0.0390,0.0415,
大田 (Ota),2015-01-04,19:01～20:00,0.0448,0.0374,0.0412,
大田 (Ota),2015-01-04,18:01～19:00,0.0450,0.0389,0.0411,
大田 (Ota),2015-01-04,17:01～18:00,0.0452,0.0379,0.0415,
大田 (Ota),2015-01-04,16:01～17:00,0.0447,0.0385,0.0416,
大田 (Ota),2015-01-04,15:01～16:00,0.0451,0.0387,0.0409,
大田 (Ota),2015-01-04,14:01～15:00,0.0435,0.0385,0.0413,
大田 (Ota),2015-01-04,13:01～14:00,0.0455,0.0383,0.0418,
大田 (Ota),2015-01-04,12:01～13:00,0.0468,0.0384,0.0420,
大田 (Ota),2015-01-04,11:01～12:00,0.0450,0.0387,0.0422,
大田 (Ota),2015-01-04,10:01～11:00,0.0440,0.0395,0.0414,
大田 (Ota),2015-01-04,09:01～10:00,0.0452,0.0389,0.0419,
大田 (Ota),2015-01-04,08:01～09:00,0.0444,0.0372,0.0413,
大田 (Ota),2015-01-04,07:01～08:00,0.0448,0.0381,0.0422,
大田 (Ota),2015-01-04,06:01～07:00,0.0459,0.0390,0.0425,
大田 (Ota),2015-01-04,05:01～06:00,0.0468,0.0396,0.0424,
大田 (Ota),2015-01-04,04:01～05:00,0.0448,0.0384,0.0419,
大田 (Ota),2015-01-04,03:01～04:00,0.0441,0.0375,0.0412,
大田 (Ota),2015-01-04,02:01～03:00,0.0433,0.0382,0.0409,
大田 (Ota),2015-01-04,01:01～02:00,0.0436,0.0377,0.0408,
大田 (Ota),2015-01-04,00:01～01:00,0.0465,0.0379,0.0409,
大田 (Ota),2015-01-03,23:01～24:00,0.0439,0.0374,0.0406,
大田 (Ota),2015-01-03,22:01～23:00,0.0438,0.0371,0.0403,
大田 (Ota),2015-01-03,21:01～22:00,0.0443,0.0379,0.0408,
大田 (Ota),2015-01-03,20:01～21:00,0.0438,0.0373,0.0410,
大田 (Ota),2015-01-03,19:01～20:00,0.0443,0.0375,0.0409,
大田 (Ota),2015-01-03,18:01～19:00,0.0450,0.0371,0.0411,
大田 (Ota),2015-01-03,17:01～18:00,0.0443,0.0382,0.0410,
大田 (Ota),2015-01-03,16:01～17:00,0.0446,0.0385,0.0412,
大田 (Ota),2015-01-03,15:01～16:00,0.0437,0.0381,0.0411,
大田 (Ota),2015-01-03,14:01～15:00,0.0448,0.0380,0.0412,
大田 (Ota),2015-01-03,13:01～14:00,0.0440,0.0378,0.0412,
大田 (Ota),2015-01-03,12:01～13:00,0.0449,0.0378,0.0410,
大田 (Ota),2015-01-03,11:01～12:00,0.0454,0.0374,0.0412,
大田 (Ota),2015-01-03,10:01～11:00,0.0475,0.0387,0.0418,
大田 (Ota),2015-01-03,09:01～10:00,0.0444,0.0383,0.0411,
大田 (Ota),2015-01-03,08:01～09:00,0.0442,0.0380,0.0414,
大田 (Ota),2015-01-03,07:01～08:00,0.0441,0.0386,0.0410,
大田 (Ota),2015-01-03,06:01～07:00,0.0442,0.0381,0.0414,
大田 (Ota),2015-01-03,05:01～06:00,0.0443,0.0374,0.0408,
大田 (Ota),2015-01-03,04:01～05:00,0.0443,0.0366,0.0410,
大田 (Ota),2015-01-03,03:01～04:00,0.0448,0.0374,0.0417,
大田 (Ota),2015-01-03,02:01～03:00,0.0445,0.0388,0.0414,
大田 (Ota),2015-01-03,01:01～02:00,0.0444,0.0378,0.0414,
大田 (Ota),2015-01-03,00:01～01:00,0.0445,0.0374,0.0414,
大田 (Ota),2015-01-02,23:01～24:00,0.0464,0.0367,0.0409,
大田 (Ota),2015-01-02,22:01～23:00,0.0440,0.0372,0.0408,
大田 (Ota),2015-01-02,21:01～22:00,0.0447,0.0383,0.0412,
大田 (Ota),2015-01-02,20:01～21:00,0.0454,0.0371,0.0414,
大田 (Ota),2015-01-02,19:01～20:00,0.0448,0.0376,0.0414,
大田 (Ota),2015-01-02,18:01～19:00,0.0456,0.0385,0.0418,
大田 (Ota),2015-01-02,17:01～18:00,0.0441,0.0377,0.0416,
大田 (Ota),2015-01-02,16:01～17:00,0.0449,0.0389,0.0415,
大田 (Ota),2015-01-02,15:01～16:00,0.0444,0.0371,0.0410,
大田 (Ota),2015-01-02,14:01～15:00,0.0439,0.0385,0.0412,
大田 (Ota),2015-01-02,13:01～14:00,0.0441,0.0380,0.0412,
大田 (Ota),2015-01-02,12:01～13:00,0.0451,0.0389,0.0415,
大田 (Ota),2015-01-02,11:01～12:00,0.0452,0.0391,0.0415,
大田 (Ota),2015-01-02,10:01～11:00,0.0446,0.0392,0.0418,
大田 (Ota),2015-01-02,09:01～10:00,0.0452,0.0392,0.0421,
大田 (Ota),2015-01-02,08:01～09:00,0.0479,0.0392,0.0423,
大田 (Ota),2015-01-02,07:01～08:00,0.0453,0.0375,0.0419,
大田 (Ota),2015-01-02,06:01～07:00,0.0446,0.0386,0.0416,
大田 (Ota),2015-01-02,05:01～06:00,0.0444,0.0380,0.0415,
大田 (Ota),2015-01-02,04:01～05:00,0.0435,0.0385,0.0410,
大田 (Ota),2015-01-02,03:01～04:00,0.0468,0.0382,0.0415,
大田 (Ota),2015-01-02,02:01～03:00,0.0448,0.0386,0.0416,
大田 (Ota),2015-01-02,01:01～02:00,0.0443,0.0386,0.0414,
大田 (Ota),2015-01-02,00:01～01:00,0.0456,0.0386,0.0415,
大田 (Ota),2015-01-01,23:01～24:00,0.0453,0.0398,0.0420,
大田 (Ota),2015-01-01,22:01～23:00,0.0449,0.0389,0.0416,
大田 (Ota),2015-01-01,21:01～22:00,0.0450,0.0387,0.0419,
大田 (Ota),2015-01-01,20:01～21:00,0.0444,0.0388,0.0416,
大田 (Ota),2015-01-01,19:01～20:00,0.0450,0.0380,0.0417,
大田 (Ota),2015-01-01,18:01～19:00,0.0454,0.0378,0.0414,
大田 (Ota),2015-01-01,17:01～18:00,0.0441,0.0392,0.0417,
大田 (Ota),2015-01-01,16:01～17:00,0.0448,0.0390,0.0422,
大田 (Ota),2015-01-01,15:01～16:00,0.0481,0.0412,0.0443,
大田 (Ota),2015-01-01,14:01～15:00,0.0470,0.0408,0.0445,
大田 (Ota),2015-01-01,13:01～14:00,0.0510,0.0407,0.0452,
大田 (Ota),2015-01-01,12:01～13:00,0.0485,0.0421,0.0455,
大田 (Ota),2015-01-01,11:01～12:00,0.0464,0.0387,0.0423,
大田 (Ota),2015-01-01,10:01～11:00,0.0446,0.0385,0.0422,
大田 (Ota),2015-01-01,09:01～10:00,0.0455,0.0394,0.0420,
大田 (Ota),2015-01-01,08:01～09:00,0.0458,0.0391,0.0425,
大田 (Ota),2015-01-01,07:01～08:00,0.0466,0.0401,0.0423,
大田 (Ota),2015-01-01,06:01～07:00,0.0462,0.0388,0.0429,
大田 (Ota),2015-01-01,05:01～06:00,0.0473,0.0391,0.0424,
大田 (Ota),2015-01-01,04:01～05:00,0.0461,0.0397,0.0425,
大田 (Ota),2015-01-01,03:01～04:00,0.0459,0.0397,0.0423,
大田 (Ota),2015-01-01,02:01～03:00,0.0447,0.0379,0.0420,
大田 (Ota),2015-01-01,01:01～02:00,0.0442,0.0384,0.0413,
大田 (Ota),2015-01-01,00:01～01:00,0.0433,0.0386,0.0412,
大田 (Ota),2014-12-31,23:01～24:00,0.0444,0.0376,0.0410,
大田 (Ota),2014-12-31,22:01～23:00,0.0447,0.0383,0.0414,
大田 (Ota),2014-12-31,21:01～22:00,0.0448,0.0382,0.0414,
大田 (Ota),2014-12-31,20:01～21:00,0.0451,0.0384,0.0419,
大田 (Ota),2014-12-31,19:01～20:00,0.0450,0.0382,0.0413,
大田 (Ota),2014-12-31,18:01～19:00,0.0462,0.0379,0.0416,
大田 (Ota),2014-12-31,17:01～18:00,0.0445,0.0384,0.0413,
大田 (Ota),2014-12-31,16:01～17:00,0.0448,0.0376,0.0415,
大田 (Ota),2014-12-31,15:01～16:00,0.0442,0.0388,0.0416,
大田 (Ota),2014-12-31,14:01～15:00,0.0448,0.0373,0.0412,
大田 (Ota),2014-12-31,13:01～14:00,0.0450,0.0385,0.0414,
大田 (Ota),2014-12-31,12:01～13:00,0.0443,0.0391,0.0413,
大田 (Ota),2014-12-31,11:01～12:00,0.0441,0.0372,0.0414,
大田 (Ota),2014-12-31,10:01～11:00,0.0466,0.0388,0.0422,
大田 (Ota),2014-12-31,09:01～10:00,0.0471,0.0389,0.0424,
大田 (Ota),2014-12-31,08:01～09:00,0.0452,0.0389,0.0423,
大田 (Ota),2014-12-31,07:01～08:00,0.0453,0.0388,0.0421,
大田 (Ota),2014-12-31,06:01～07:00,0.0454,0.0392,0.0419,
大田 (Ota),2014-12-31,05:01～06:00,0.0456,0.0373,0.0418,
大田 (Ota),2014-12-31,04:01～05:00,0.0450,0.0387,0.0418,
大田 (Ota),2014-12-31,03:01～04:00,0.0460,0.0373,0.0414,
大田 (Ota),2014-12-31,02:01～03:00,0.0434,0.0377,0.0410,
大田 (Ota),2014-12-31,01:01～02:00,0.0446,0.0373,0.0417,
大田 (Ota),2014-12-31,00:01～01:00,0.0460,0.0384,0.0417,
大田 (Ota),2014-12-30,23:01～24:00,0.0459,0.0383,0.0415,
大田 (Ota),2014-12-30,22:01～23:00,0.0442,0.0390,0.0416,
大田 (Ota),2014-12-30,21:01～22:00,0.0448,0.0387,0.0415,
大田 (Ota),2014-12-30,20:01～21:00,0.0434,0.0387,0.0412,
大田 (Ota),2014-12-30,19:01～20:00,0.0442,0.0368,0.0415,
大田 (Ota),2014-12-30,18:01～19:00,0.0450,0.0381,0.0412,
大田 (Ota),2014-12-30,17:01～18:00,0.0437,0.0389,0.0413,
大田 (Ota),2014-12-30,16:01～17:00,0.0445,0.0370,0.0413,
大田 (Ota),2014-12-30,15:01～16:00,0.0461,0.0386,0.0414,
大田 (Ota),2014-12-30,14:01～15:00,0.0467,0.0381,0.0417,
大田 (Ota),2014-12-30,13:01～14:00,0.0441,0.0376,0.0410,
大田 (Ota),2014-12-30,12:01～13:00,0.0458,0.0372,0.0415,
大田 (Ota),2014-12-30,11:01～12:00,0.0450,0.0389,0.0414,
大田 (Ota),2014-12-30,10:01～11:00,0.0451,0.0374,0.0412,
大田 (Ota),2014-12-30,09:01～10:00,0.0459,0.0383,0.0411,
大田 (Ota),2014-12-30,08:01～09:00,0.0443,0.0381,0.0411,
大田 (Ota),2014-12-30,07:01～08:00,0.0437,0.0386,0.0413,
大田 (Ota),2014-12-30,06:01～07:00,0.0440,0.0382,0.0412,
大田 (Ota),2014-12-30,05:01～06:00,0.0446,0.0368,0.0419,
大田 (Ota),2014-12-30,04:01～05:00,0.0456,0.0396,0.0418,
大田 (Ota),2014-12-30,03:01～04:00,0.0443,0.0387,0.0414,
大田 (Ota),2014-12-30,02:01～03:00,0.0448,0.0386,0.0414,
大田 (Ota),2014-12-30,01:01～02:00,0.0447,0.0376,0.0412,
大田 (Ota),2014-12-30,00:01～01:00,0.0444,0.0373,0.0413,
大田 (Ota),2014-12-29,23:01～24:00,0.0430,0.0384,0.0408,
大田 (Ota),2014-12-29,22:01～23:00,0.0443,0.0375,0.0408,
大田 (Ota),2014-12-29,21:01～22:00,0.0440,0.0368,0.0412,
大田 (Ota),2014-12-29,20:01～21:00,0.0462,0.0388,0.0418,
大田 (Ota),2014-12-29,19:01～20:00,0.0454,0.0377,0.0413,
大田 (Ota),2014-12-29,18:01～19:00,0.0451,0.0379,0.0413,
大田 (Ota),2014-12-29,17:01～18:00,0.0454,0.0380,0.0412,
大田 (Ota),2014-12-29,16:01～17:00,0.0439,0.0383,0.0415,
大田 (Ota),2014-12-29,15:01～16:00,0.0451,0.0388,0.0418,
大田 (Ota),2014-12-29,14:01～15:00,0.0449,0.0377,0.0414,
大田 (Ota),2014-12-29,13:01～14:00,0.0461,0.0391,0.0431,
大田 (Ota),2014-12-29,12:01～13:00,0.0540,0.0428,0.0484,
大田 (Ota),2014-12-29,11:01～12:00,0.0581,0.0496,0.0544,
大田 (Ota),2014-12-29,10:01～11:00,0.0572,0.0511,0.0541,
大田 (Ota),2014-12-29,09:01～10:00,0.0616,0.0527,0.0562,
大田 (Ota),2014-12-29,08:01～09:00,0.0569,0.0452,0.0506,
大田 (Ota),2014-12-29,07:01～08:00,0.0536,0.0412,0.0484,
大田 (Ota),2014-12-29,06:01～07:00,0.0544,0.0463,0.0511,
大田 (Ota),2014-12-29,05:01～06:00,0.0540,0.0399,0.0463,
大田 (Ota),2014-12-29,04:01～05:00,0.0457,0.0396,0.0426,
大田 (Ota),2014-12-29,03:01～04:00,0.0478,0.0415,0.0448,
大田 (Ota),2014-12-29,02:01～03:00,0.0467,0.0397,0.0435,
大田 (Ota),2014-12-29,01:01～02:00,0.0482,0.0406,0.0441,
大田 (Ota),2014-12-29,00:01～01:00,0.0463,0.0392,0.0424,
